THOR ABLESTAR DEB, 244

Orbit data source: Space-Track

THOR ABLESTAR DEB, 244 is space debris in LEO originally from a launch on Thu, 29 Jun 1961 UTC launched from the Air Force Eastern Test Range (AFETR). Debris objects in space refer to the collection of defunct objects orbiting the Earth. Examples of debris include non-operational satellites, rocket bodies, and fragments generated from explosions, collisions, or faulty payload assembly.

Loading next visibility...
Identifier
244, 1961-015BZ
Orbit
LEO
Country
Flag of USUS
Related business
Manufacturer
Unknown
Mission
Spacecraft
Bus & Motor
Unknown
Mass
Unknown
Launch date (UTC)
1961-06-29 (65 years ago)
Launch vehicle
Unknown
Launch site
Air Force Eastern Test Range (AFETR)
Object type
Payload
Rocket body
Debris
Shape & HBR
Unknown shape, 0.2 m
Radar Cross Section
Small (<0.1 m²)

Expand to show TLE details & history
Last TLE update: 8 hours ago

TLE from 8 hours ago
0 THOR ABLESTAR DEB
1   244U 61015BZ  26036.74505875  .00000296  00000-0  26874-3 0  9998
2   244  66.8397 192.4798 0069104 182.6137 177.4594 13.95689495280791
Epoch: 2026-02-05T17:52Z
TLE epoch observation values (Epoch: 2026-02-05T17:52:53.076Z)
Latitude
-0.00004°
Longitude
148.36576°
Altitude
961.156 km
Speed
7.346 km/s
True Right ascension
12h 49m 55s
True Declination
0° 00' 00"
Sunlit
Object was in full shadow at epoch
Visualization orbit readout
Latitude
Unknown
Longitude
Unknown
Altitude
Unknown
Speed
Unknown
Apparent Right ascension
Unknown
Apparent Declination
Unknown
Sunlit
N/A
Visualization observer readout
Local Sidereal Time
04:04:35
Azimuth
Unknown
Elevation
Unknown
Doppler factor
Unknown
Orbital elements
Apogee altitude
957.489 km
Perigee altitude
856.801 km
Semi-major axis
7,285.282 km
Eccentricity
0.00691
Inclination
66.8397°
RAAN
192.4798°
Arg. of periapsis
182.6137°
True anomaly
177.4942°
Mean anomaly
177.4594°
Eccentric anomaly
177.47683°
Mean motion
3.49039 °/min
Orbital period
103.14 mins
BSTAR
0.00026874
Loading maneuver chart data...
Computing Atmospheric mass density...

Documentation

Showing up to 5 results
|